www.pogodaiklimat.ru

Погода и климат >> Архив погоды >> Россия >> Чукотка >> Анадырь


АРХИВ ПОГОДЫ в Анадыре

Время (UTC), дата Ветер
(напр.,м/с)
 
Видим.   Явления Облачность Т
(С)
Тd
(С)
f
(%)
Тe
(С)
Тes
(С)
Комфортность P
(гПа)
Po
(гПа)
Тmin
(С)
Tmax
(С)
R
(мм)
R24
(мм)
S
(см)
18 19.04 Ю 2
{8}
50 км 5/0
[Ac trans]
-6.8 -9.7 80 -11 -11 тепло 1009.0 1001.2 -7.5 32
21 19.04 СЗ 4
{5}
50 км 1/0
[Ac trans]
-4.7 -9.1 71 -11 -8 тепло 1009.9 1002.1
00 20.04 В 2
{6}
50 км 3/0
[Ci fib]
-1.4 -8.1 60 -5 +3 тепло 1010.5 1002.8
03 20.04 Ю 1
{3}
50 км ясно 0.0 -7.2 58 -1 +5 тепло 1011.4 1003.7
06 20.04 Ю 2
{5}
50 км 3/0
[Ci fib]
-2.1 -6.4 72 -6 -5 тепло 1012.2 1004.5 +0.5
09 20.04 СЗ 3
{5}
50 км ясно -4.5 -7.2 81 -10 -10 тепло 1014.4 1006.5
12 20.04 В 3
{12}
50 км ясно -6.3 -12.7 60 -12 -12 тепло 1015.5 1007.6
15 20.04 СВ 9-11
{18}
50 км ясно -9.6 -12.6 79 -20 -20 по сезону 1016.8 1008.8
18 20.04 С 3
{15}
50 км ясно -9.5 -13.0 76 -15 -15 по сезону 1017.4 1009.4 -10.2 30
21 20.04 СВ 8-11
{14}
50 км 5/0
[Ci fib]
-6.0 -9.9 74 -15 -14 по сезону 1018.0 1010.1
00 21.04 СВ 5
{13}
50 км 4/0
[Ci fib]
-3.0 -8.4 66 -9 -5 тепло 1018.7 1010.8
03 21.04 СВ 7-10
{12}
50 км 4/0
[Ci fib]
-2.9 -8.3 66 -10 -9 по сезону 1019.0 1011.1
06 21.04 СВ 3
{11}
50 км 3/0
[Ci fib]
-3.2 -11.5 53 -8 -7 тепло 1019.0 1011.1 -1.8
09 21.04 СВ 5
{11}
50 км 3/0
[Ci fib]
-5.5 -13.1 55 -12 -12 по сезону 1020.0 1012.1
12 21.04 В 8-11
{11}
50 км ясно -6.9 -14.2 56 -16 -16 по сезону 1020.1 1012.2
15 21.04 В 3
{14}
50 км 3/0
[Ci fib]
-7.6 -17.4 45 -13 -13 по сезону 1020.2 1012.3
18 21.04 СВ 9-12
{14}
50 км 3/0
[Ci fib]
-9.4 -17.7 51 -19 -19 по сезону 1020.1 1012.1 -9.4 30
21 21.04 С 3-10
{12}
50 км 3/0
[Ci fib]
-10.4 -15.7 65 -16 -12 по сезону 1020.6 1012.6 -10.7
00 22.04 СЗ 4
{11}
50 км 1/0
[Ci fib]
-6.3 -13.9 55 -12 -7 по сезону 1020.4 1012.5
03 22.04 СВ 10-13
{14}
50 км 1/0
[Ci fib]
-4.6 -12.2 55 -14 -13 по сезону 1020.0 1012.1
06 22.04 СВ 8-10
{13}
50 км 3/0
[Ci fib]
-5.2 -14.9 46 -13 -13 по сезону 1019.8 1011.9 -4.2
09 22.04 С 3
{12}
50 км 3/0
[Ci fib]
-6.2 -17.6 40 -11 -11 по сезону 1019.7 1011.8
12 22.04 СВ 7
{10}
50 км ясно -9.0 -18.5 46 -18 -18 по сезону 1019.5 1011.5
15 22.04 С 4
{12}
50 км ясно -11.4 -18.6 55 -18 -18 по сезону 1019.0 1011.0
18 22.04 СЗ 2
{7}
50 км ясно -12.6 -18.8 60 -17 -16 по сезону 1018.2 1010.0 -13.3 30
21 22.04 СЗ 5
{7}
50 км 1/0
[Ci fib]
-12.1 -17.3 65 -20 -17 по сезону 1017.0 1009.0
00 23.04 С 3
{10}
50 км 1/0
[Ci fib]
-6.5 -11.6 67 -12 -5 по сезону 1015.3 1007.4
03 23.04 СВ 10-13
{14}
50 км ясно -3.9 -11.6 55 -13 -12 по сезону 1013.5 1005.6
06 23.04 СВ 11-14
{14}
50 км ясно -5.0 -9.9 68 -15 -15 по сезону 1010.8 1003.0 -3.6
09 23.04 С 5
{14}
50 км ясно -6.5 -11.6 67 -14 -14 по сезону 1010.4 1002.6
12 23.04 С 5
{9}
50 км ясно -11.0 -13.8 80 -19 -19 по сезону 1008.5 1000.6
15 23.04 СВ 6
{10}
50 км ясно -12.5 -16.0 75 -21 -21 по сезону 1006.5 998.6
18 23.04 СЗ 5-10
{12}
50 км 1/0
[Ac trans]
-12.8 -16.3 75 -21 -21 по сезону 1005.0 996.9 -12.8 30
21 23.04 СЗ 9-11
{17}
50 км 8/0
[Ac trans Ci fib]
-8.5 -14.4 62 -18 -18 по сезону 1003.8 995.9 -13.0
00 24.04 СЗ 10-13
{23}
50 км 5/0
[Ci fib]
-6.0 -11.6 65 -16 -15 по сезону 1002.0 994.3
03 24.04 С 6
{16}
50 км 1/0
[Ci fib]
-4.1 -11.4 57 -11 -9 по сезону 1000.4 992.7
06 24.04 СВ 7
{12}
50 км 3/0
[Ci fib]
-5.0 -10.4 66 -13 -13 по сезону 999.4 991.7 -3.7
09 24.04 СВ 11-16
{16}
50 км 1/0
[Ci fib]
-7.6 -13.1 65 -18 -18 по сезону 998.7 991.0
12 24.04 СВ 9-11
{22}
50 км ясно -9.4 -14.0 69 -19 -19 по сезону 998.6 990.7
15 24.04 С 10-12
{16}
50 км 3/0
[Ci fib]
-10.6 -15.0 70 -21 -21 по сезону 997.3 989.4
18 24.04 СЗ 6
{15}
50 км 1/0
[Ac lent]
-14.4 -17.1 80 -24 -24 прохладно 996.6 988.6 -14.6 29
21 24.04 С 8-10
{11}
50 км 1/0
[Ci fib]
-11.0 -14.6 75 -21 -20 прохладно 995.6 987.7 -14.7
00 25.04 С 11-13
{13}
50 км 6/0
[Ac trans Ci fib]
-7.4 -13.3 63 -18 -18 по сезону 994.0 986.3
03 25.04 С 7
{14}
50 км 8/3 600 м
[Sc Ac trans]
-5.8 -11.0 67 -14 -13 по сезону 993.8 986.1
06 25.04 С 7
{10}
50 км 8/3 600 м
[Sc Ac trans]
-5.7 -8.3 82 -14 -14 по сезону 993.8 986.1 -5.2
09 25.04 СЗ 7
{11}
50 км 9/9 600 м
[Cb cap]
-7.4 -8.7 90 -16 -16 по сезону 994.2 986.5
12 25.04 СЗ 7
{9}
50 км 9/9 600 м
[Cb cap]
-8.4 -9.9 89 -17 -17 по сезону 994.1 986.2
15 25.04 СЗ 6
{12}
50 км 8/8 600 м
[Cb cap]
-10.4 -11.7 90 -19 -19 по сезону 993.6 985.7
18 25.04 СЗ 8-11
{12}
50 км 9/8 600 м
[Cb cap Ac trans]
-7.2 -8.5 90 -17 -17 по сезону 995.1 987.4 -10.4 29
21 25.04 СЗ 7
{11}
50 км {ливн. осадки} 9/6 600 м
[Cb cap Ac trans]
-6.0 -7.5 89 -15 -14 по сезону 997.0 989.3
00 26.04 СЗ 5
{8}
15 км слабый ливневой снег 9/9 600 м
[Cb cap]
-4.4 -6.7 84 -11 -11 по сезону 998.4 990.7
03 26.04 СЗ 7
{11}
20 км слабый ливневой снег 9/9 600 м
[Cb cap]
-4.3 -7.0 81 -12 -12 по сезону 999.5 991.8
06 26.04 СЗ 4
{8}
50 км {ливн. осадки} 6/3 600 м
[Sc Ac trans Ci fib]
-5.2 -6.9 88 -12 -11 по сезону 999.5 991.8 -4.0 0.0
09 26.04 СЗ 3
{5}
50 км 9/3 600 м
[Sc Ac trans Ci fib]
-7.4 -8.7 90 -13 -13 по сезону 1000.1 992.4
12 26.04 С 4
{5}
50 км 9/5 600 м
[Sc Ac trans]
-7.2 -8.9 88 -14 -14 по сезону 999.4 991.7
15 26.04 СЗ 4
{5}
50 км 9/6 600 м
[Sc Ac trans]
-8.0 -9.0 92 -15 -15 по сезону 999.7 991.8

 

Местоположение метеостанции Анадырь (Чукотка, Россия): широта 64.78 долгота 177.50 высота над уровнем моря 61 м.

В архиве по умолчанию представлена погода в Анадыре за последнюю неделю. Архивные данные за месяц целиком и за предыдущие месяцы, начиная с января 2011 года, Вы можете получить, выбрав интересующий диапазон дат из раскрывающегося списка и нажав кнопку "Ввод!".


*Определитесь, кто Вы:
робот инопланетянин человек

Внимание! Время в таблицах - всемирное. Для получения местного времени необходимо прибавить поправку, которая в Анадыре равна 12 ч.

Смотрите также архив погоды в соседних городах и на ближайших метеорологических станциях:

Погода в Анадыре АМС (Чукотка, Россия) (7 км)
Погода в Канчалане (Чукотка, Россия) (58 км)
Погода в Танюрере (Чукотка, Россия) (147 км)
Погода в Эньмувееме (Чукотка, Россия) (263 км)
Погода в Маркове (Чукотка, Россия) (337 км)
Погода в Майской (Чукотка, Россия) (457 км)
Погода в Слаутном (Камчатский край, Россия) (504 км)
Погода в Паляваам-Глубокой (Чукотка, Россия) (505 км)
Погода в Илирнее (Чукотка, Россия) (513 км)
Погода в Комсомольской (Чукотка, Россия) (525 км)

Пояснения к столбцам:

Ветер - указаны скорость ветра в м/с - средняя за 10 мин, порывы в срок и между сроками (в фигурных скобках) и направление, откуда дует ветер: С - северный, СВ - северо-восточный, В - восточный, ЮВ - юго-восточный, Ю - южный, ЮЗ - юго-западный, З - западный, СЗ - северо-западный.
Видимость - горизонтальная дальность видимости в метрах или километрах. При видимости от 1 до 10 км при отсутствии осадков обычно наблюдается дымка, при ухудшении видимости до 1 км и менее - туман. В сухую погоду видимость может ухудшаться дымом, пылью или мглою.
Явления - указаны атмосферные явления, наблюдавшиеся в срок или в последний час перед сроком; фигурными скобками обозначены явления, наблюдавшиеся между сроками (за 1-3 часа до срока); квадратными скобками обозначены град или гололедные отложения с указанием их диаметра в мм.
Облачность - указаны через наклонную черту общая и нижняя облачность в баллах и высота нижней границы облаков в метрах; квадратными скобками обозначены формы облаков: Ci - перистые, Cs - перисто-слоистые, Cc - перисто-кучевые, Ac - высококучевые, As - высокослоистые, Sc - слоисто-кучевые, Ns - слоисто-дождевые, Cu - кучевые, Cb - кучево-дождевые. Подробнее классификацию облаков см. в Атласе облаков (PDF).
T - Температура воздуха - температура, измеренная на высоте 2 м над землей.
Td - Температура точки росы - температура, при понижении до которой содержащийся в воздухе водяной пар достигнет насыщения.
f - Относительная влажность воздуха - влажноcть воздуха, измеренная на высоте 2 м над землей.
Te - Эффективная температура - температура, которую ощущает одетый по сезону человек в тени. Характеристика душности погоды. При расчете учитывается влияние влажности воздуха и скорости ветра на теплоощущения человека.
Tes - Эффективная температура на солнце - температура, которую ощущает человек, с поправкой на солнечный нагрев. Характеристика знойности погоды. Зависит от высоты солнца над горизонтом, облачности и скорости ветра. Ночью, в пасмурную погоду, а также при ветре 12 м/с и более поправка равна нулю.
P - Атмосферное давление - приведенное к уровню моря атмосферное давление.
Po - Атмосферное давление - измеренное на уровне метеостанции атмосферное давление.
Tmin - Минимальная температура - минимум температуры воздуха на высоте 2 м над землей.
Tmax - Максимальная температура - максимум температуры воздуха на высоте 2 м над землей.
R - Количество осадков - Количество выпавших осадков за период времени, мм. При наведении курсора мыши на число - период времени, за который выпало указанное количество осадков.
R24 - Количество осадков - Количество выпавших осадков за 24 часа, мм.
S - Снежный покров - Высота снежного покрова, см. При наведении курсора мыши на число - состояние снежного покрова и степень покрытия местности в баллах.